Time,TemperatureF,DewpointF,PressureIn,WindDirection,WindDirectionDegrees,WindSpeedMPH,WindSpeedGustMPH,Humidity,HourlyPrecipIn,Conditions,Clouds,dailyrainin,SoftwareType,DateUTC
2013-01-19 00:10:00,50.5,-46.6,30.02,ESE,112,0.0,-999.0,1,-99.99,,,0.00,Acu-Link.com,2013-01-19 08:10:00,
2013-01-19 00:25:00,50.4,-46.7,30.01,SE,135,2.7,-999.0,1,-99.99,,,0.00,Acu-Link.com,2013-01-19 08:25:00,
2013-01-19 00:40:00,52.3,-45.5,30.02,SSE,157,0.0,-999.0,1,-99.99,,,0.00,Acu-Link.com,2013-01-19 08:40:00,
2013-01-19 00:56:00,52.7,-45.3,30.02,SSE,157,0.0,-999.0,1,-99.99,,,0.00,Acu-Link.com,2013-01-19 08:56:00,
2013-01-19 01:35:00,52.9,-45.2,30.02,NNE,22,0.0,-999.0,1,-99.99,,,0.00,Acu-Link.com,2013-01-19 09:35:00,
2013-01-19 01:50:00,52.3,-45.5,30.03,ESE,112,0.0,-999.0,1,-99.99,,,0.00,Acu-Link.com,2013-01-19 09:50:00,
2013-01-19 02:05:00,52.9,-45.2,30.03,North,0,1.1,-999.0,1,-99.99,,,0.00,Acu-Link.com,2013-01-19 10:05:00,
2013-01-19 02:21:00,52.5,-45.4,30.03,South,180,0.0,-999.0,1,-99.99,,,0.00,Acu-Link.com,2013-01-19 10:21:00,
2013-01-19 02:36:00,50.9,-46.4,30.03,ESE,112,0.0,-999.0,1,-99.99,,,0.00,Acu-Link.com,2013-01-19 10:36:00,
2013-01-19 02:51:00,49.8,-47.1,30.03,ESE,112,0.0,-999.0,1,-99.99,,,0.00,Acu-Link.com,2013-01-19 10:51:00,
2013-01-19 03:06:00,49.1,-47.5,30.03,SSE,157,0.0,-999.0,1,-99.99,,,0.00,Acu-Link.com,2013-01-19 11:06:00,
2013-01-19 04:56:00,51.6,-46.0,30.02,SE,135,1.1,-999.0,1,-99.99,,,0.00,Acu-Link.com,2013-01-19 12:56:00,
2013-01-19 05:12:00,51.6,-46.0,30.01,SSE,157,1.7,-999.0,1,-99.99,,,0.00,Acu-Link.com,2013-01-19 13:12:00,
2013-01-19 05:27:00,51.4,-46.1,30.02,ESE,112,0.0,-999.0,1,-99.99,,,0.00,Acu-Link.com,2013-01-19 13:27:00,
2013-01-19 05:42:00,51.6,-46.0,30.03,ENE,67,2.7,-999.0,1,-99.99,,,0.00,Acu-Link.com,2013-01-19 13:42:00,
2013-01-19 05:57:00,51.6,-46.0,30.03,East,90,0.0,-999.0,1,-99.99,,,0.00,Acu-Link.com,2013-01-19 13:57:00,
2013-01-19 06:12:00,50.9,-46.4,30.04,South,180,0.0,-999.0,1,-99.99,,,0.00,Acu-Link.com,2013-01-19 14:12:00,
2013-01-19 06:27:00,48.9,-47.6,30.04,ENE,67,0.0,-999.0,1,-99.99,,,0.00,Acu-Link.com,2013-01-19 14:27:00,
2013-01-19 06:42:00,48.6,-47.8,30.04,NE,45,1.1,-999.0,1,-99.99,,,0.00,Acu-Link.com,2013-01-19 14:42:00,
2013-01-19 06:57:00,48.9,-47.6,30.05,ENE,67,1.1,-999.0,1,-99.99,,,0.00,Acu-Link.com,2013-01-19 14:57:00,
2013-01-19 07:12:00,48.6,-47.8,30.06,ENE,67,0.0,-999.0,1,-99.99,,,0.00,Acu-Link.com,2013-01-19 15:12:00,
2013-01-19 07:27:00,48.6,-47.8,30.06,ENE,67,0.0,-999.0,1,-99.99,,,0.00,Acu-Link.com,2013-01-19 15:27:00,
2013-01-19 07:43:00,48.6,-47.8,30.06,East,90,0.0,-999.0,1,-99.99,,,0.00,Acu-Link.com,2013-01-19 15:43:00,
2013-01-19 07:58:00,50.9,-46.4,30.06,NNW,337,0.0,-999.0,1,-99.99,,,0.00,Acu-Link.com,2013-01-19 15:58:00,
2013-01-19 08:13:00,58.5,-41.8,30.06,ENE,67,2.7,-999.0,1,-99.99,,,0.00,Acu-Link.com,2013-01-19 16:13:00,
2013-01-19 08:28:00,64.4,-38.2,30.07,NE,45,0.0,-999.0,1,-99.99,,,0.00,Acu-Link.com,2013-01-19 16:28:00,
2013-01-19 08:43:00,69.3,-35.2,30.08,East,90,2.7,-999.0,1,-99.99,,,0.00,Acu-Link.com,2013-01-19 16:43:00,
2013-01-19 08:58:00,71.2,-34.1,30.08,ESE,112,5.8,-999.0,1,-99.99,,,0.00,Acu-Link.com,2013-01-19 16:58:00,
2013-01-19 09:13:00,74.8,-31.9,30.09,East,90,3.7,-999.0,1,-99.99,,,0.00,Acu-Link.com,2013-01-19 17:13:00,
2013-01-19 09:28:00,77.0,-30.6,30.09,South,180,0.0,-999.0,1,-99.99,,,0.00,Acu-Link.com,2013-01-19 17:28:00,
2013-01-19 09:44:00,77.4,-30.4,30.09,NNW,337,2.7,-999.0,1,-99.99,,,0.00,Acu-Link.com,2013-01-19 17:44:00,
2013-01-19 09:59:00,75.9,-31.3,30.09,WNW,292,2.7,-999.0,1,-99.99,,,0.00,Acu-Link.com,2013-01-19 17:59:00,
2013-01-19 10:44:00,78.1,-30.0,30.07,ENE,67,5.3,-999.0,1,-99.99,,,0.00,Acu-Link.com,2013-01-19 18:44:00,
2013-01-19 10:59:00,78.4,-29.8,30.06,NNE,22,5.3,-999.0,1,-99.99,,,0.00,Acu-Link.com,2013-01-19 18:59:00,
2013-01-19 11:14:00,79.7,-29.0,30.05,East,90,6.3,-999.0,1,-99.99,,,0.00,Acu-Link.com,2013-01-19 19:14:00,
2013-01-19 11:29:00,79.5,-29.1,30.05,South,180,9.9,-999.0,1,-99.99,,,0.00,Acu-Link.com,2013-01-19 19:29:00,
2013-01-19 11:44:00,79.2,-29.3,30.04,SW,225,11.9,-999.0,1,-99.99,,,0.00,Acu-Link.com,2013-01-19 19:44:00,
2013-01-19 11:59:00,79.0,-29.4,30.03,ENE,67,2.7,-999.0,1,-99.99,,,0.00,Acu-Link.com,2013-01-19 19:59:00,
2013-01-19 12:30:00,80.4,-28.6,30.02,West,270,6.8,-999.0,1,-99.99,,,0.00,Acu-Link.com,2013-01-19 20:30:00,
2013-01-19 12:45:00,79.7,-29.0,30.01,SSE,157,4.7,-999.0,1,-99.99,,,0.00,Acu-Link.com,2013-01-19 20:45:00,
2013-01-19 13:00:00,80.2,-28.7,30.00,NNE,22,9.9,-999.0,1,-99.99,,,0.00,Acu-Link.com,2013-01-19 21:00:00,
2013-01-19 13:15:00,79.2,-29.3,30.00,ESE,112,3.2,-999.0,1,-99.99,,,0.00,Acu-Link.com,2013-01-19 21:15:00,
2013-01-19 14:15:00,78.1,-30.0,29.99,ENE,67,11.4,-999.0,1,-99.99,,,0.00,Acu-Link.com,2013-01-19 22:15:00,
2013-01-19 14:31:00,78.6,-29.7,29.99,NNE,22,9.4,-999.0,1,-99.99,,,0.00,Acu-Link.com,2013-01-19 22:31:00,
2013-01-19 15:31:00,77.9,-30.1,29.98,WNW,292,1.7,-999.0,1,-99.99,,,0.00,Acu-Link.com,2013-01-19 23:31:00,
2013-01-19 15:46:00,77.5,-30.3,29.98,SE,135,3.2,-999.0,1,-99.99,,,0.00,Acu-Link.com,2013-01-19 23:46:00,
2013-01-19 16:02:00,76.1,-31.2,29.97,NNW,337,4.7,-999.0,1,-99.99,,,0.00,Acu-Link.com,2013-01-20 00:02:00,
2013-01-19 16:17:00,75.2,-31.7,29.98,North,0,3.2,-999.0,1,-99.99,,,0.00,Acu-Link.com,2013-01-20 00:17:00,
2013-01-19 16:32:00,72.7,-33.2,29.98,SSW,202,0.0,-999.0,1,-99.99,,,0.00,Acu-Link.com,2013-01-20 00:32:00,
2013-01-19 16:47:00,70.9,-34.3,29.99,West,270,4.2,-999.0,1,-99.99,,,0.00,Acu-Link.com,2013-01-20 00:47:00,
2013-01-19 17:17:00,68.4,-35.8,29.98,NNE,22,2.2,-999.0,1,-99.99,,,0.00,Acu-Link.com,2013-01-20 01:17:00,
2013-01-19 17:47:00,65.7,-37.4,30.00,SSW,202,1.1,-999.0,1,-99.99,,,0.00,Acu-Link.com,2013-01-20 01:47:00,
2013-01-19 18:02:00,64.2,-38.3,30.00,NE,45,0.0,-999.0,1,-99.99,,,0.00,Acu-Link.com,2013-01-20 02:02:00,
2013-01-19 18:18:00,63.0,-39.0,29.99,East,90,0.0,-999.0,1,-99.99,,,0.00,Acu-Link.com,2013-01-20 02:18:00,
2013-01-19 18:33:00,62.4,-39.4,30.00,ESE,112,1.7,-999.0,1,-99.99,,,0.00,Acu-Link.com,2013-01-20 02:33:00,
2013-01-19 18:48:00,61.3,-40.1,30.00,South,180,1.1,-999.0,1,-99.99,,,0.00,Acu-Link.com,2013-01-20 02:48:00,
2013-01-19 19:18:00,58.8,-41.6,30.02,NE,45,1.1,-999.0,1,-99.99,,,0.00,Acu-Link.com,2013-01-20 03:18:00,
2013-01-19 19:48:00,57.4,-42.4,30.02,East,90,0.0,-999.0,1,-99.99,,,0.00,Acu-Link.com,2013-01-20 03:48:00,
2013-01-19 20:03:00,55.8,-43.4,30.02,ESE,112,2.2,-999.0,1,-99.99,,,0.00,Acu-Link.com,2013-01-20 04:03:00,
2013-01-19 20:18:00,54.5,-44.2,30.03,SSE,157,0.0,-999.0,1,-99.99,,,0.00,Acu-Link.com,2013-01-20 04:18:00,
2013-01-19 20:34:00,52.9,-45.2,30.03,SW,225,0.0,-999.0,1,-99.99,,,0.00,Acu-Link.com,2013-01-20 04:34:00,
2013-01-19 20:49:00,51.6,-46.0,30.03,SW,225,0.0,-999.0,1,-99.99,,,0.00,Acu-Link.com,2013-01-20 04:49:00,
2013-01-19 21:04:00,51.3,-46.2,30.04,ESE,112,0.0,-999.0,1,-99.99,,,0.00,Acu-Link.com,2013-01-20 05:04:00,
2013-01-19 21:19:00,49.6,-47.2,30.04,ESE,112,0.0,-999.0,1,-99.99,,,0.00,Acu-Link.com,2013-01-20 05:19:00,
2013-01-19 21:34:00,49.6,-47.2,30.04,North,0,2.2,-999.0,1,-99.99,,,0.00,Acu-Link.com,2013-01-20 05:34:00,
2013-01-19 21:49:00,48.4,-47.9,30.04,SSW,202,0.0,-999.0,1,-99.99,,,0.00,Acu-Link.com,2013-01-20 05:49:00,
2013-01-19 22:04:00,48.0,-48.2,30.04,NE,45,0.0,-999.0,1,-99.99,,,0.00,Acu-Link.com,2013-01-20 06:04:00,
2013-01-19 22:19:00,47.5,-48.5,30.05,SSW,202,0.0,-999.0,1,-99.99,,,0.00,Acu-Link.com,2013-01-20 06:19:00,
2013-01-19 22:34:00,46.8,-48.9,30.04,ESE,112,0.0,-999.0,1,-99.99,,,0.00,Acu-Link.com,2013-01-20 06:34:00,
2013-01-19 22:50:00,46.6,-49.0,30.05,NNE,22,1.7,-999.0,1,-99.99,,,0.00,Acu-Link.com,2013-01-20 06:50:00,
2013-01-19 23:05:00,45.7,-49.6,30.05,ESE,112,0.0,-999.0,1,-99.99,,,0.00,Acu-Link.com,2013-01-20 07:05:00,
2013-01-19 23:20:00,44.6,-50.3,30.05,SW,225,0.0,-999.0,1,-99.99,,,0.00,Acu-Link.com,2013-01-20 07:20:00,
2013-01-19 23:35:00,44.6,-50.3,30.05,SW,225,0.0,-999.0,1,-99.99,,,0.00,Acu-Link.com,2013-01-20 07:35:00,
2013-01-19 23:50:00,43.9,-50.7,30.05,SW,225,0.0,-999.0,1,-99.99,,,0.00,Acu-Link.com,2013-01-20 07:50:00,